Weather History for Moab, UT

Change the Weather History Date:

Thursday, November 15, 2012

  Actual Average Record
Temperature  
Mean Temperature 35 °F 39 °F  
Max Temperature 54 °F 51 °F 73 °F (1953)
Min Temperature 16 °F 27 °F 16 °F (2012)
Degree Days  
Heating Degree Days 30 26  
Month to date heating degree days 331 341  
Since 1 July heating degree days 678 760  
Cooling Degree Days 0 0  
Month to date cooling degree days 0 0  
Year to date cooling degree days 1513 1289  
Moisture  
Dew Point 16 °F    
Average Humidity 50    
Maximum Humidity 73    
Minimum Humidity 26    
Precipitation  
Precipitation 0.00 in 0.02 in 0.47 in (1988)
Month to date precipitation 0.06 0.34  
Year to date precipitation 2.66 7.85  
Sea Level Pressure  
Sea Level Pressure 30.34 in    
Wind  
Wind Speed 2 mph (WSW)    
Max Wind Speed 8 mph    
Max Gust Speed 8 mph    
Visibility 10 miles    
Events      
T = Trace of Precipitation, MM = Missing Value Source: NWS Daily Summary

Daily Weather History Graph

Daily Weather History Graph

Search for Another Location

Airport:

Trip Planner

Search our weather history database for the weather conditions in past years. The results will help you decide how hot, cold, wet, or windy it might be!

Date:

Astronomy

Nov. 15, 2012 Rise Set
Actual Time 7:01 AM MST 5:05 PM MST
Civil Twilight 6:33 AM MST 5:33 PM MST
Nautical Twilight 6:01 AM MST 6:05 PM MST
Astronomical Twilight 5:29 AM MST 6:37 PM MST
Moon 9:00 AM MST (11/15) 7:00 PM MST (11/15)
Length of Visible Light 11h 00m
Length of Day
10h 03m
Waxing Crescent, 5% of the Moon is Illuminated
Nov 15
Waxing Crescent
Nov 20
First Quarter
Nov 28
Full
Dec 6
Last Quarter
Dec 13
New

Hourly Weather History & Observations

Time (MST) Temp. Windchill Dew Point Humidity Pressure Visibility Wind Dir Wind Speed Gust Speed Precip Events Conditions
12:53 AM 28.0 °F - 14.0 °F 56% 30.29 in 10.0 mi Calm Calm - N/A   Clear
1:53 AM 24.1 °F - 12.9 °F 62% 30.30 in 10.0 mi Calm Calm - N/A   Clear
2:53 AM 25.0 °F - 12.9 °F 60% 30.30 in 10.0 mi Calm Calm - N/A   Clear
3:53 AM 25.0 °F 19.3 °F 12.9 °F 60% 30.32 in 10.0 mi West 4.6 mph - N/A   Clear
4:53 AM 21.9 °F 17.2 °F 12.0 °F 66% 30.34 in 10.0 mi West 3.5 mph - N/A   Clear
5:53 AM 16.0 °F 10.4 °F 9.0 °F 74% 30.38 in 10.0 mi WSW 3.5 mph - N/A   Clear
6:53 AM 19.9 °F 14.9 °F 10.9 °F 68% 30.39 in 10.0 mi WSW 3.5 mph - N/A   Clear
7:53 AM 21.9 °F - 10.9 °F 63% 30.43 in 10.0 mi Calm Calm - N/A   Clear
8:53 AM 30.9 °F - 16.0 °F 54% 30.42 in 10.0 mi Calm Calm - N/A   Clear
9:53 AM 39.9 °F - 17.1 °F 40% 30.39 in 10.0 mi Calm Calm - N/A   Clear
10:53 AM 43.0 °F 41.3 °F 19.9 °F 40% 30.38 in 10.0 mi SSE 3.5 mph - N/A   Clear
11:53 AM 46.0 °F 44.8 °F 21.0 °F 37% 30.37 in 10.0 mi South 3.5 mph - N/A   Clear
12:53 PM 48.9 °F - 19.9 °F 32% 30.32 in 10.0 mi SE 3.5 mph - N/A   Clear
1:53 PM 51.1 °F - 19.9 °F 29% 30.32 in 10.0 mi Calm Calm - N/A   Clear
2:53 PM 53.1 °F - 19.0 °F 26% 30.29 in 10.0 mi NE 5.8 mph - N/A   Clear
3:53 PM 53.1 °F - 19.0 °F 26% 30.29 in 10.0 mi Calm Calm - N/A   Clear
4:53 PM 46.9 °F - 19.0 °F 33% 30.31 in 10.0 mi NW 6.9 mph - N/A   Clear
5:53 PM 43.0 °F 39.5 °F 18.0 °F 37% 30.34 in 10.0 mi NNW 5.8 mph - N/A   Clear
6:53 PM 37.9 °F - 15.1 °F 39% 30.36 in 10.0 mi Calm Calm - N/A   Clear
7:53 PM 32.0 °F - 14.0 °F 48% 30.37 in 10.0 mi Calm Calm - N/A   Clear
8:53 PM 34.0 °F - 17.1 °F 50% 30.33 in 10.0 mi Calm Calm - N/A   Clear
9:53 PM 28.9 °F 21.9 °F 12.9 °F 51% 30.32 in 10.0 mi SW 6.9 mph - N/A   Clear
10:53 PM 28.0 °F - 14.0 °F 56% 30.31 in 10.0 mi Calm Calm - N/A   Clear
11:53 PM 33.1 °F - 18.0 °F 54% 30.28 in 10.0 mi Calm Calm - N/A   Clear